Weather Roundup
Issued by NWS

Home | Current Version | Previous Version | Text Only | Print | Product List | Glossary On
Versions: 1 2 3 4 5 6 7 8 9 10 11 12 13 14 15 16 17 18 19 20 21 22 23 24 25 26 27 28 29 30 31 32 33 34 35 36 37 38 39 40 41 42 43 44 45 46 47 48 49 50
850
NZUS93 KARX 230910
HRRWXR

CURRENT HOURLY OBSERVATIONS ACROSS
MUCH OF THE UPPER MISSISSIPPI VALLEY
NATIONAL WEATHER SERVICE LA CROSSE WI
400 AM CDT TUE MAY 23 2017


...SOUTHEAST MINNESOTA...


CITY           SKY/WX    TMP DP  RH WIND       PRES   REMARKS
ROCHESTER      CLOUDY    50  48  93 N13       29.79F
ROCHESTER/MAYO CLOUDY    50  49  95 NW8       29.80S
WINONA         RAIN      54  52  94 NW9       29.77S
AUSTIN         CLOUDY    48  46  93 CALM      29.79F
ALBERT LEA     CLOUDY    52  48  87 W5        29.80F
DODGE CENTER   CLOUDY    48  46  93 NW5       29.79F
PRESTON        CLOUDY    49  47  92 NW8       29.78S
OWATONNA       CLOUDY    50  45  81 W3        29.80F
FARIBAULT      CLOUDY    52  48  87 W3        29.80F
$$

...ELSEWHERE IN MINNESOTA...


CITY           SKY/WX    TMP DP  RH WIND       PRES   REMARKS
MINNEAPOLIS    CLOUDY    52  44  74 NW5       29.80F
INTNL FALLS    CLOUDY    47  45  93 NE9       29.86R
DULUTH         CLOUDY    47  44  90 N5        29.81R
RED WING       CLOUDY    52  46  82 CALM      29.79F
REDWOOD FALLS  LGT RAIN  48  44  86 NW7       29.84S
MANKATO        CLOUDY    49  46  90 NW9       29.82F
WORTHINGTON    LGT RAIN  46  45  93 NW10      29.87S
FAIRMONT       CLOUDY    50  45  83 NW12      29.84S
$$

...SOUTHWEST WISCONSIN...


CITY           SKY/WX    TMP DP  RH WIND       PRES   REMARKS
LA CROSSE      CLOUDY    55  54  96 CALM      29.76S
PRAIRIE DU CHI FOG       50  49  97 CALM      29.76S VSB 1
BOSCOBEL       FOG       53  52  96 CALM      29.76F VSB 1/2
LONE ROCK      FOG       51  50  96 CALM      29.76S VSB 1
PLATTEVILLE    CLOUDY    55  55 100 SW10      29.77S
FORT MC COY    FOG       45  45 100 CALM      29.77R VSB 1/4
CAMP DOUGLAS   FOG       46  46  99 CALM      29.75S VSB 1/4
MAUSTON-NEW LI FOG       48  48  99 CALM      29.75S VSB 1/4
VIROQUA        CLOUDY    51  51 100 MISG      29.76F
WIS DELLS      MOCLDY    50  48  95 CALM      29.76S FOG
$$

...ELSEWHERE IN WISCONSIN...


CITY           SKY/WX    TMP DP  RH WIND       PRES   REMARKS
MILWAUKEE      CLOUDY    59  55  87 SW8       29.79F
MADISON        MOCLDY    54  54 100 S7        29.75F
GREEN BAY      CLOUDY    52  46  80 E8        29.78F
EAU CLAIRE     CLOUDY    50  47  89 CALM      29.79R
BLACK RVR FLS  PTSUNNY   51  51 100 CALM      29.76S
MEDFORD        DRIZZLE   47  44  89 NE3       29.78F
WAUSAU         LGT RAIN  47  46  97 E5        29.78F
WIS RAPIDS     CLOUDY    51  48  89 E9G17     29.76F
MARSHFIELD     CLOUDY    48  46  93 NE9       29.75F
RICE LAKE      LGT RAIN  47  46  93 CALM      29.83R
$$

...NORTHEAST IOWA...


CITY           SKY/WX    TMP DP  RH WIND       PRES   REMARKS
WATERLOO       CLEAR     49  48  97 NW5       29.77S
DUBUQUE        CLOUDY    52  51  97 SW8       29.77S
DECORAH        CLOUDY    52  52 100 CALM      29.76S FOG
MASON CITY     CLOUDY    49  47  93 NW6       29.82S
CHARLES CITY   CLOUDY    52  52 100 N13       29.78F
OELWEIN        FOG       52  52 100 NW6       29.78R VSB 1
$$

...ELSEWHERE IN IOWA...


CITY           SKY/WX    TMP DP  RH WIND       PRES   REMARKS
DES MOINES     CLOUDY    54  51  90 NW12      29.82S
IOWA CITY      CLOUDY    54  50  86 VRB3      29.81F
FORT DODGE     CLOUDY    52  48  87 W6        29.85S
MARSHALLTOWN   PTCLDY    50  49  96 NW9       29.79S
CEDAR RAPIDS   CLOUDY    50  50 100 SW6       29.79S
$$

...NORTHERN ILLINOIS...


CITY           SKY/WX    TMP DP  RH WIND       PRES   REMARKS
CHICAGO-OHARE  CLOUDY    59  53  80 SW7       29.82F
CHICAGO-MIDWAY CLOUDY    60  54  80 S9        29.83F
MOLINE         CLOUDY    56  51  84 SW8       29.80F
ROCKFORD       CLOUDY    57  53  86 S8        29.81F
PEORIA         LGT RAIN  56  56 100 SW6       29.85S
$$

NOTE: "FAIR" INDICATES FEW OR NO CLOUDS BELOW 12,000 FEET WITH NO
SIGNIFICANT WEATHER AND/OR OBSTRUCTIONS TO VISIBILITY. WIND
SPEEDS ARE IN MILES-PER-HOUR.




USA.gov is the U.S. government's official web portal to all federal, state and local government web resources and services.